This demonstration page uses our WeatherBlox Daily Observations layout. Learn more.

Left ArrowRight Arrow

40.92945, -100.16068

Hourly Observations for March 9, 2021

Temp ( °F °C ) Dew Point ( °F °C ) Humidity (%) Winds ( mph kmh ) Pressure ( in mb ) Visibility ( mi km ) Precip ( " mm )
12:15 am 00:15 Clear 51 10.8 42 5.5 70 70 SSE 13 20 29.86 1011 10 16 N/A
12:35 am 00:35 Clear 50 10.2 42 5.5 73 73 SE 9 15 29.87 1011 10 16 N/A
12:55 am 00:55 Clear 50 9.8 42 5.3 74 74 E 6 9 29.86 1011 10 16 N/A
1:15 am 01:15 Clear 49 9.2 41 5.2 76 76 ESE 7 11 29.86 1011 10 16 N/A
1:35 am 01:35 Clear 49 9.7 42 5.7 76 76 SSE 9 15 29.85 1011 10 16 N/A
1:55 am 01:55 Clear 48 9 42 5.6 79 79 SE 9 15 29.85 1011 10 16 N/A
2:15 am 02:15 Clear 49 9.2 42 5.6 78 78 ESE 6 9 29.85 1011 10 16 N/A
2:35 am 02:35 Clear 46 7.7 41 5.1 84 84 SSE 7 11 29.85 1011 10 16 N/A
2:55 am 02:55 Clear 46 7.5 41 5.1 85 85 ESE 5 7 29.85 1011 10 16 N/A
3:15 am 03:15 Clear 43 5.9 38 3.6 85 85 N N/A 29.87 1011 10 16 N/A
3:35 am 03:35 Clear 42 5.5 39 4 90 90 SE 8 13 29.85 1011 10 16 N/A
3:55 am 03:55 Clear 46 7.8 42 5.5 86 86 SE 5 7 29.82 1010 10 16 N/A
4:15 am 04:15 Clear 46 7.5 41 5.1 85 85 SE 5 7 29.82 1010 10 16 N/A
4:35 am 04:35 Clear 44 6.5 40 4.7 88 88 SSE 3 6 29.84 1011 10 16 N/A
4:55 am 04:55 Clear 41 5 39 4 93 93 N N/A 29.86 1011 10 16 N/A
5:15 am 05:15 Clear 38 3.5 37 2.5 93 93 N N/A 29.87 1012 10 16 N/A
5:35 am 05:35 Clear 37 2.7 36 2 95 95 N N/A 29.89 1012 10 16 N/A
5:55 am 05:55 Clear 36 2.1 35 1.5 96 96 N N/A 29.89 1012 7 11 N/A
6:15 am 06:15 Clear 35 1.5 34 1 97 97 N N/A 29.89 1012 7 11 N/A
6:35 am 06:35 Clear with Mist and Fog 35 1.7 34 1.1 96 96 N N/A 29.90 1013 5 8 N/A
6:55 am 06:55 Mostly Cloudy with Mist and Fog 34 1 33 0.5 97 97 N N/A 29.91 1013 1 2 N/A
7:15 am 07:15 Sunny with Mist and Fog 34 1.2 33 0.8 97 97 N N/A 29.90 1013 5 8 N/A
7:35 am 07:35 Sunny 34 1.1 33 0.8 98 98 N N/A 29.90 1012 7 11 N/A
7:55 am 07:55 Sunny 37 2.7 36 2.3 97 97 N N/A 29.88 1012 7 11 N/A
8:15 am 08:15 Sunny 42 5.4 40 4.6 95 95 SE 5 7 29.86 1011 10 16 N/A
8:35 am 08:35 Sunny 45 7.4 42 5.5 88 88 SSE 3 6 29.84 1010 10 16 N/A
8:55 am 08:55 Sunny 47 8.1 43 5.9 86 86 SSW 6 9 29.84 1010 10 16 N/A
9:15 am 09:15 Sunny 50 9.8 44 6.4 80 80 WSW 3 6 29.82 1010 10 16 N/A
9:35 am 09:35 Sunny 51 10.7 43 6.3 74 74 W 3 6 29.80 1009 10 16 N/A
9:55 am 09:55 Sunny 53 11.9 44 6.7 71 71 N N/A 29.79 1009 10 16 N/A
10:15 am 10:15 Sunny 56 13.6 44 6.9 64 64 WSW 6 9 29.78 1008 10 16 N/A
10:35 am 10:35 Sunny 58 14.7 45 7 60 60 W 6 9 29.77 1008 10 16 N/A
10:55 am 10:55 Sunny 61 16 44 6.8 55 55 W 5 7 29.76 1008 10 16 N/A
11:15 am 11:15 Sunny 63 17.3 44 6.6 50 50 WSW 6 9 29.74 1007 10 16 N/A
11:35 am 11:35 Sunny 64 17.6 42 5.7 46 46 W 6 9 29.74 1007 10 16 N/A
11:55 am 11:55 Sunny 66 19 42 5.8 42 42 W 5 7 29.72 1006 10 16 N/A
12:15 pm 12:15 Sunny 67 19.7 40 4.6 37 37 SW 3 6 29.71 1006 10 16 N/A
12:35 pm 12:35 Sunny 69 20.5 41 4.8 36 36 N N/A 29.70 1006 10 16 N/A
12:55 pm 12:55 Sunny 71 21.5 40 4.5 33 33 S 6 9 29.68 1005 10 16 N/A
1:15 pm 13:15 Sunny 71 21.6 40 4.4 33 33 S 6 9 29.66 1004 10 16 N/A
1:35 pm 13:35 Sunny 72 22.3 39 3.8 30 30 S 7 11 29.65 1004 10 16 N/A
1:55 pm 13:55 Sunny 73 22.6 37 2.8 27 27 SE 7 11 29.63 1003 10 16 N/A
2:15 pm 14:15 Sunny 73 23 37 2.5 26 26 SSE 8 13 29.63 1003 10 16 N/A
2:35 pm 14:35 Sunny 73 23 37 2.8 27 27 SE 7 11 29.62 1003 10 16 N/A
2:55 pm 14:55 Sunny 74 23.5 35 1.8 24 24 SSE 5 7 29.59 1002 10 16 N/A
3:15 pm 15:15 Sunny 75 23.7 37 2.5 25 25 SE 7 11 29.58 1002 10 16 N/A
3:35 pm 15:35 Sunny 75 23.7 36 2.2 24 24 SE 8 13 29.58 1002 10 16 N/A
3:55 pm 15:55 Sunny 75 23.7 37 2.8 26 26 ESE 8 13 29.58 1002 10 16 N/A
4:15 pm 16:15 Sunny 74 23.4 36 2.1 25 25 SE 12 19 29.58 1002 10 16 N/A
4:35 pm 16:35 Sunny 74 23.3 36 2.4 25 25 SE 7 11 29.58 1002 10 16 N/A
4:55 pm 16:55 Sunny 73 22.8 37 2.5 26 26 SE 10 17 29.58 1002 10 16 N/A
5:15 pm 17:15 Sunny 72 22.3 39 4 30 30 SE 10 17 29.58 1002 10 16 N/A
5:35 pm 17:35 Sunny 71 21.6 41 5.1 34 34 SE 12 19 29.59 1002 10 16 N/A
5:55 pm 17:55 Sunny 69 20.8 42 5.6 37 37 SE 12 19 29.60 1002 10 16 N/A
6:15 pm 18:15 Sunny 68 20 43 6.3 41 41 SE 9 15 29.60 1002 10 16 N/A
6:35 pm 18:35 Sunny 66 18.9 44 6.6 45 45 SE 7 11 29.60 1002 10 16 N/A
6:55 pm 18:55 Clear 64 17.6 45 7 50 50 SE 8 13 29.61 1003 10 16 N/A
7:15 pm 19:15 Clear 64 17.7 44 6.6 48 48 SE 8 13 29.61 1003 10 16 N/A
7:35 pm 19:35 Clear 62 16.8 45 7 53 53 ESE 9 15 29.62 1003 10 16 N/A
7:55 pm 19:55 Clear 62 16.6 44 6.8 53 53 SE 8 13 29.62 1003 10 16 N/A
8:15 pm 20:15 Clear 61 15.9 45 7 56 56 SE 8 13 29.63 1003 10 16 N/A
8:35 pm 20:35 Clear 61 16.1 46 7.5 57 57 ESE 9 15 29.62 1003 10 16 N/A
8:55 pm 20:55 Clear 60 15.5 46 7.7 60 60 ESE 9 15 29.61 1003 10 16 N/A
9:15 pm 21:15 Clear 59 14.9 46 8 64 64 N 10 17 29.64 1004 10 16 N/A
9:35 pm 21:35 Partly Cloudy 61 16.2 48 9 63 63 ENE 6 9 29.65 1004 10 16 N/A
9:55 pm 21:55 Mostly Cloudy 59 14.9 40 4.3 49 49 NNE 15 24 29.65 1004 10 16 N/A
10:15 pm 22:15 Cloudy 56 13.6 37 2.6 48 48 NNE 18 30 29.65 1004 10 16 N/A
10:35 pm 22:35 Cloudy 55 12.6 36 2.3 50 50 NNE 21 33 29.65 1004 10 16 N/A
10:55 pm 22:55 Cloudy 54 12.1 36 2.3 51 51 NE 21 33 29.64 1004 10 16 N/A
11:15 pm 23:15 Cloudy 53 11.7 36 2.4 53 53 NE 20 31 29.66 1004 10 16 N/A
11:35 pm 23:35 Mostly Cloudy 53 11.6 36 2.3 53 53 NE 22 35 29.64 1004 10 16 N/A
11:55 pm 23:55 Mostly Cloudy 53 11.5 36 2.3 54 54 NE 21 33 29.63 1003 10 16 N/A

Powered by AerisWeather